STARLINK-37253, 68606

Orbit data source: Space-Track

STARLINK-37253, 68606 is a payload satellite owned by SpaceX/Seattle (US) in SSO that was launched on Sun, 05 Apr 2026 UTC via an FALCON 9 launch vehicle from the Air Force Western Test Range (AFWTR). Payload-class satellites include a variety of spacecraft equipped with specific instruments for various scientific and technological missions. These include communications satellites like Starlink; space stations such as the ISS; scientific satellites like the Hubble; Earth observation satellites from companies like Planet Labs, Umbra, and HawkEye 360; GPS; miniature CubeSats for education and research; and military/defense satellites.

Loading next visibility...
Identifier
68606, 2026-073E
Orbit
SSO
Country
Flag of USUS
Related business
Manufacturer
SpaceX/Seattle
Mission
Operational spacecraft
Bus & Motor
STARLINK V2MO, Unknown motor
Mass
575 kg wet, ~530 kg dry
Launch date (UTC)
2026-04-05 (3 months ago)
Launch vehicle
FALCON 9
Launch site
Air Force Western Test Range (AFWTR)
Object type
Payload
Rocket body
Debris
Shape & HBR
Unknown shape, 2.3 m
Radar Cross Section
Large (>1 m²)

Expand to show TLE details & history
Last TLE update: 1 day ago

TLE from 1 day ago
0 STARLINK-37253
1 68606U 26073E   26170.51143023  .00013436  00000-0  41775-3 0  9993
2 68606  97.2860   9.9008 0001420  97.1698 262.9707 15.33445505 11496
Epoch: 2026-06-19T12:16Z
TLE epoch observation values (Epoch: 2026-06-19T12:16:27.571Z)
Latitude
0.00003°
Longitude
-81.95344°
Altitude
468.773 km
Speed
7.632 km/s
True Right ascension
00h 39m 36s
True Declination
0° 00' 00"
Sunlit
Object was in daylight at epoch
Visualization orbit readout
Latitude
Unknown
Longitude
Unknown
Altitude
Unknown
Speed
Unknown
Apparent Right ascension
Unknown
Apparent Declination
Unknown
Sunlit
N/A
Visualization observer readout
Local Sidereal Time
07:15:55
Azimuth
Unknown
Elevation
Unknown
Doppler factor
Unknown
Orbital elements
Apogee altitude
463.456 km
Perigee altitude
461.513 km
Semi-major axis
6,840.621 km
Eccentricity
0.00014
Inclination
97.286°
RAAN
9.9008°
Arg. of periapsis
97.1698°
True anomaly
262.95455°
Mean anomaly
262.9707°
Eccentric anomaly
262.96263°
Mean motion
3.83619 °/min
Orbital period
93.84 mins
BSTAR
0.00041775
Loading maneuver chart data...
Computing Atmospheric mass density...
Loading historical data...
Loading historical data...
Loading historical data...
Loading historical data...
Loading historical data...
Loading historical data...
Loading historical data...

Documentation

Showing up to 5 results
|